Temperature
17 18 18 18 18 19 20 22 24 23 23 22 22 22 21 20 19 17 16 15 15 15 15 15 15 15 15 15 15 15 15 15 15 15 15 15 15 15 14 14 14 14 14 14 14 14 14 14 15
17 17 18 18 18 19 21 22 23 22 22 21 21 22 21 19 17 16 15 15 15 15 15 15 15 15 15 15 15 15 15 15 15 15 15 14 14 14 14 14 14 14 14 14 14 14 14 14 14
17 17 18 19 19 20 21 22 21 21 21 21 21 20 20 18 16 15 15 15 15 15 15 15 15 15 15 15 15 15 15 15 15 15 14 14 14 14 14 14 14 14 14 14 14 14 14 14 14
16 17 19 18 19 20 21 21 21 21 21 21 20 19 17 16 15 15 15 15 15 14 14 14 14 14 15 15 14 14 15 15 15 15 14 14 14 14 14 14 14 14 14 14 14 14 14 14 14
16 18 18 18 19 21 21 21 21 20 20 21 20 19 17 15 15 15 14 14 14 14 14 14 14 14 14 14 14 14 14 15 15 14 14 14 14 14 14 14 14 14 14 14 14 14 14 14 14
17 18 18 18 19 21 21 21 20 20 20 20 19 18 16 15 15 14 14 14 14 14 14 14 14 14 14 14 14 14 14 14 14 14 14 14 14 14 14 14 14 14 14 14 14 14 14 14 14
17 17 18 19 19 20 20 20 20 19 19 19 19 18 16 14 14 14 14 14 14 14 14 14 13 13 13 14 14 14 14 14 14 14 14 14 14 14 13 14 14 14 14 14 14 14 14 14 13
16 17 18 18 19 19 19 19 19 18 18 18 18 17 16 14 14 13 13 13 13 13 13 13 13 13 13 13 13 13 13 13 13 13 13 13 13 13 13 13 13 13 13 13 13 13 13 13 13
15 15 16 18 18 18 18 18 17 17 16 16 16 16 15 14 13 13 13 13 13 13 13 13 13 13 13 13 13 13 13 13 13 13 13 13 13 13 13 13 13 13 13 13 13 13 13 13 13
15 14 16 17 17 17 17 17 16 16 16 16 15 15 14 14 13 13 13 13 13 13 13 12 13 13 13 13 13 13 13 13 13 13 13 13 13 13 13 13 13 13 13 13 13 13 13 13 13
15 15 16 16 15 16 16 16 15 15 15 15 15 14 14 13 13 12 12 12 12 12 12 12 12 12 12 12 12 12 12 12 12 12 12 12 12 12 12 12 12 12 12 13 13 13 13 13 12
15 15 15 15 14 14 15 15 15 15 15 15 14 14 13 13 13 12 12 12 12 12 12 12 12 12 12 12 12 12 12 12 12 12 12 12 12 12 12 12 12 12 12 12 12 12 12 12 12
14 14 14 13 13 13 13 14 14 14 14 14 14 13 13 13 12 12 12 12 11 12 12 12 12 12 12 12 12 12 12 12 12 12 12 12 12 12 11 11 12 12 12 12 12 12 12 12 12
13 13 13 13 13 13 13 13 13 13 13 13 13 13 13 12 12 12 12 11 11 11 11 11 11 11 11 11 11 11 11 11 11 11 11 11 11 11 11 11 11 11 11 11 11 11 11 11 11
12 12 12 13 13 13 12 12 12 13 13 13 13 12 12 12 12 11 11 11 11 11 11 11 11 11 11 11 11 11 11 11 11 11 11 11 11 11 11 11 11 11 11 11 11 11 11 11 11
12 12 12 13 13 12 11 11 13 14 13 13 13 12 12 12 11 11 11 11 11 11 11 11 11 11 11 11 11 11 11 11 11 11 11 11 11 11 11 11 11 11 11 11 10 10 10 10 10
12 12 12 12 12 12 11 11 13 13 13 13 13 12 12 12 11 11 10 10 10 10 10 10 10 10 10 10 10 10 10 10 10 10 10 10 10 10 10 10 10 10 10 10 10 10 10 10 10
11 12 12 12 12 12 11 11 12 13 12 12 13 12 12 11 11 10 10 10 10 10 10 10 10 10 10 10 10 10 10 10 10 10 10 10 10 10 10 10 10 10 10 10 9 9 9 9 9
12 12 11 12 11 11 10 11 11 12 12 12 12 12 12 11 11 10 10 10 10 10 10 9 9 10 9 9 9 9 9 9 9 9 10 10 9 9 9 9 9 9 9 9 9 9 9 9 9
11 10 11 11 11 11 10 10 11 12 12 12 12 12 11 11 10 10 9 9 9 9 9 9 9 9 9 9 9 9 9 9 9 9 9 9 9 9 9 9 9 9 8 8 8 8 8 8 8
10 10 10 10 10 10 10 10 11 12 12 12 12 11 11 10 10 9 9 9 8 8 9 8 8 8 8 8 8 8 8 8 8 8 8 9 8 8 8 8 8 8 8 8 8 8 8 7 8
9 9 10 9 8 8 10 8 11 11 11 11 11 11 11 10 10 9 8 8 8 8 8 8 8 8 8 8 8 8 7 7 8 7 8 8 8 8 8 8 8 8 8 7 7 7 7 7 7
9 9 9 9 8 7 9 8 9 11 11 11 11 11 10 10 9 9 8 7 7 7 7 7 7 8 7 7 7 7 7 7 7 7 7 7 7 7 7 7 7 7 7 7 7 7 7 6 6
8 8 8 8 7 7 8 8 9 10 11 11 10 11 10 9 9 8 8 7 7 7 7 7 7 7 7 7 7 7 6 6 6 6 6 7 7 7 7 7 7 7 6 6 6 6 6 6 6
8 7 7 7 7 7 9 9 9 10 11 10 10 10 9 8 8 7 7 7 6 6 6 6 6 6 6 6 6 6 6 6 6 6 6 6 6 6 6 6 6 6 6 6 6 6 5 5 5
7 7 7 7 7 8 8 8 9 10 10 10 10 9 8 8 7 7 6 6 6 6 6 6 6 6 6 6 6 5 5 5 5 5 5 5 5 5 5 5 5 5 5 5 5 5 5 5 5
7 7 8 7 6 6 8 9 9 9 9 9 9 8 8 7 7 6 6 5 5 5 5 5 5 5 5 5 5 5 5 5 4 5 5 5 5 5 5 5 5 5 5 5 5 5 5 5 5
7 7 6 6 6 7 9 9 8 8 8 8 8 8 7 7 6 6 5 5 5 5 5 5 4 4 4 4 4 4 4 4 4 4 4 4 4 4 4 4 4 4 4 4 4 4 4 4 4
6 6 6 6 6 6 7 8 9 8 8 7 7 7 7 7 6 5 5 4 4 4 4 4 4 4 3 3 3 3 3 3 3 3 3 3 3 3 3 4 4 4 4 4 4 4 4 4 4
6 6 6 5 5 6 6 7 8 7 7 7 7 7 7 6 5 5 4 4 4 3 3 3 3 3 3 3 3 3 3 3 2 3 3 3 3 3 3 3 3 3 3 3 3 3 3 3 3
Wind_Speed
16 14 7 3 3 5 7 5 3 1 2 5 7 5 5 5 5 6 3 4 6 8 9 9 8 8 8 7 7 7 7 7 8 8 8 8 8 8 8 8 8 8 8 8 9 9 8 8 9
12 9 4 3 4 6 6 5 3 2 4 4 3 3 3 5 6 7 4 4 5 8 9 8 9 8 8 7 7 7 7 7 7 7 7 7 7 7 7 8 8 8 8 7 8 8 8 8 8
10 8 4 4 5 7 4 1 4 5 4 2 2 4 3 4 6 4 4 3 4 7 9 10 10 8 7 7 7 6 6 6 6 6 6 6 7 7 7 7 7 7 7 7 7 7 7 7 7
5 4 4 5 9 8 4 1 4 3 3 2 2 3 4 6 4 5 4 2 4 7 9 10 10 8 7 7 6 6 5 5 6 6 6 6 6 6 7 7 7 7 7 7 7 6 6 6 6
4 4 5 7 10 8 3 2 2 1 1 3 2 2 4 5 8 7 3 3 4 7 9 10 9 8 7 6 6 5 5 4 4 5 5 5 5 6 6 6 6 6 6 6 6 6 5 5 5
3 4 6 8 9 7 3 1 1 2 1 1 2 2 4 6 7 5 4 3 4 6 8 9 9 8 7 6 5 5 4 4 4 5 4 4 4 4 5 5 5 5 5 5 5 4 4 4 4
4 4 7 8 8 6 1 2 1 1 2 0 1 1 5 6 5 5 4 3 4 6 6 7 7 7 6 6 5 4 4 4 5 5 4 4 4 4 4 5 5 4 4 3 3 3 3 3 2
4 4 6 8 8 4 1 1 1 2 2 3 3 0 3 6 5 5 4 4 4 5 5 5 5 5 5 5 5 4 4 4 5 4 4 4 3 4 4 5 4 4 3 2 2 2 2 1 1
3 4 5 5 5 1 3 0 1 2 1 2 2 3 5 8 6 5 4 3 4 4 3 3 3 4 4 4 4 4 4 4 4 4 4 3 2 3 4 4 4 3 3 2 2 2 1 1 1
3 4 5 4 5 3 2 2 2 1 2 1 1 3 6 6 5 4 3 2 2 3 3 2 2 2 3 2 3 3 3 4 3 3 3 2 1 2 2 5 5 4 4 3 3 3 3 3 3
3 4 4 4 6 5 3 3 2 4 4 3 2 3 5 4 3 3 3 2 2 2 2 2 2 2 2 1 1 1 2 2 2 2 2 2 1 2 2 3 3 3 4 3 3 3 4 4 3
4 4 4 3 4 4 3 3 4 5 3 3 2 2 4 4 4 3 2 2 2 2 2 1 2 1 1 1 1 1 1 1 1 2 2 2 1 0 1 2 2 2 2 2 2 3 4 3 3
6 4 2 2 3 4 4 5 5 7 3 2 1 2 3 3 3 3 2 2 2 2 1 1 1 1 1 1 1 1 1 1 1 1 1 1 1 1 0 1 1 2 2 2 2 2 2 2 2
2 2 3 3 4 4 5 6 6 7 4 4 4 4 4 4 3 2 3 2 2 2 1 1 0 0 1 1 1 0 1 1 1 1 0 0 1 1 1 1 1 2 2 2 2 3 2 2 2
2 3 5 6 6 4 3 7 9 7 5 5 5 5 5 4 3 3 2 2 2 2 1 1 1 1 1 0 1 1 1 1 1 1 1 1 1 1 1 1 2 2 2 2 2 3 2 2 2
4 4 4 4 5 4 3 7 5 5 5 6 6 5 5 5 4 3 2 2 2 2 1 1 0 1 1 0 0 0 1 1 1 1 1 1 1 1 1 2 2 2 2 1 2 2 2 2 2
6 5 5 4 4 3 6 7 4 3 5 6 6 6 5 4 4 3 3 3 2 3 2 1 1 1 1 0 0 0 0 0 1 1 2 2 1 1 1 2 2 2 1 1 2 2 2 2 2
3 4 5 5 3 4 6 9 6 5 6 6 6 5 4 4 3 3 3 3 2 2 2 2 1 1 1 1 0 0 0 0 1 1 2 2 2 1 1 2 2 2 1 2 2 2 2 2 3
5 5 6 4 0 3 7 10 9 7 7 7 6 4 3 3 3 2 2 2 2 2 2 2 1 1 1 1 0 0 1 1 1 1 2 2 2 2 1 1 1 1 2 2 2 2 3 3 2
5 6 6 3 1 3 7 11 10 7 7 6 5 4 4 3 2 2 2 2 2 2 2 1 1 0 0 0 1 1 1 1 1 1 2 2 2 3 2 1 1 2 2 2 3 2 2 2 1
4 4 5 4 4 5 6 8 8 5 5 5 4 4 3 4 3 2 2 2 2 2 1 0 0 0 0 0 0 0 1 1 1 1 1 2 3 2 2 2 2 2 2 3 3 3 3 3 3
4 2 4 4 3 3 2 5 5 5 6 7 6 4 4 3 3 2 2 2 2 2 1 1 1 0 0 0 0 1 1 2 2 2 2 2 3 2 2 3 2 2 3 3 3 3 3 3 4
1 2 3 5 5 5 5 5 7 4 5 5 5 5 4 3 3 3 3 3 3 3 2 1 1 1 1 1 1 1 1 2 2 2 2 2 2 2 2 3 2 2 3 4 4 3 3 3 4
1 2 3 3 2 5 6 6 5 3 3 4 5 5 5 5 4 4 4 4 3 3 2 2 1 1 1 1 1 1 2 2 3 2 2 3 2 2 2 4 2 2 3 4 4 4 4 4 5
2 1 1 1 3 5 3 4 6 2 3 4 5 6 6 5 3 3 3 3 2 2 2 2 2 2 2 1 1 2 3 3 3 3 3 3 3 3 3 3 3 3 4 4 4 4 5 5 5
4 3 2 3 3 3 2 6 4 3 5 6 6 5 4 4 3 3 2 2 1 2 2 2 2 2 3 2 2 2 3 2 2 3 3 3 3 3 4 4 4 4 4 4 4 4 5 5 5
3 4 1 1 3 4 5 4 2 4 4 4 4 4 4 3 3 2 2 2 2 2 2 2 2 2 2 2 3 3 2 2 2 3 3 3 3 3 3 4 5 4 4 4 4 4 5 5 5
3 1 1 2 3 5 5 5 4 5 5 4 4 3 3 3 2 2 1 2 2 2 2 2 1 2 2 2 2 4 3 3 2 3 3 3 4 4 4 4 4 4 4 4 4 4 5 6 6
4 4 3 3 3 3 4 3 0 5 5 4 3 2 3 2 2 1 1 1 2 2 2 2 2 2 2 2 2 3 4 3 3 3 3 4 4 4 4 4 5 5 4 4 4 4 5 5 6
3 4 5 4 5 4 4 5 1 4 4 3 2 2 2 2 1 2 1 1 1 2 2 2 2 2 2 2 3 3 3 3 4 4 4 4 4 4 4 5 5 5 5 4 5 5 5 5 6
Wind_Direction
308 289 263 260 247 233 242 243 265 76 63 39 23 13 34 29 31 102 124 58 80 105 111 116 116 116 115 110 105 102 102 102 105 102 98 94 94 93 88 84 81 80 78 76 75 75 78 80 80
299 290 273 240 242 236 235 217 224 58 71 62 29 2 50 71 70 95 81 47 79 103 111 114 118 118 117 113 108 105 104 102 106 104 100 97 96 97 90 84 80 80 78 77 77 76 78 79 79
281 271 256 236 238 243 251 39 95 92 97 88 56 14 20 56 73 84 73 72 86 99 107 114 119 117 115 115 115 111 109 103 107 106 100 101 103 103 97 90 84 79 76 77 80 78 82 82 81
279 248 241 246 245 253 268 47 74 87 115 122 114 85 79 50 62 81 82 94 96 101 102 116 123 120 117 115 119 119 117 109 113 111 103 103 106 107 101 98 93 88 82 78 80 77 82 85 85
249 251 232 236 247 253 276 57 73 108 165 143 128 112 89 76 80 87 79 80 94 99 103 118 121 122 120 119 119 121 119 117 123 120 107 105 110 113 108 105 100 93 88 84 82 76 81 85 84
253 245 239 233 239 233 219 129 173 263 241 143 137 148 104 100 88 91 81 65 89 94 99 115 117 122 123 124 122 121 118 115 119 118 112 108 113 121 123 117 110 101 93 90 90 82 78 84 82
267 259 253 254 252 242 210 92 196 257 271 289 7 117 121 101 92 98 91 64 74 87 98 107 118 121 124 126 126 124 122 121 123 123 126 131 132 132 139 132 122 113 105 98 96 91 82 86 84
302 282 255 253 253 253 128 118 346 354 330 11 10 84 122 116 108 97 89 72 70 82 94 101 109 114 118 125 129 132 133 132 135 137 135 138 150 156 150 145 139 134 123 112 110 114 93 100 102
283 262 253 265 276 286 96 86 39 13 2 2 24 45 90 111 109 102 89 71 66 65 72 91 97 103 117 133 138 140 146 144 149 151 147 154 170 169 160 156 155 156 152 153 153 169 161 177 220
227 242 255 313 346 354 35 15 8 278 228 233 137 100 102 110 119 129 127 112 80 59 46 51 68 86 94 116 130 149 155 162 170 165 163 167 152 132 157 166 175 176 178 183 193 206 212 209 222
224 240 280 330 357 356 356 346 324 277 258 235 205 150 129 133 143 155 145 138 118 91 60 43 27 62 83 71 100 120 136 154 177 170 160 148 140 137 132 138 160 174 185 189 204 219 224 227 217
255 269 292 311 343 327 306 297 279 265 284 345 30 121 149 161 169 169 160 158 136 116 87 57 20 40 64 61 56 70 87 113 158 181 183 157 144 121 137 140 172 181 197 199 211 230 246 248 232
242 258 280 313 316 297 289 267 272 268 279 319 314 189 200 188 180 175 175 178 154 135 114 82 30 53 50 52 49 66 62 58 87 62 199 167 159 176 186 159 176 201 209 205 218 243 250 259 255
270 265 263 256 251 262 265 263 255 251 221 221 223 222 212 208 200 200 191 181 164 156 149 122 93 27 67 62 50 12 4 44 24 27 326 220 170 176 193 233 225 234 227 235 229 239 235 239 243
285 259 248 232 229 229 267 263 234 235 213 217 224 226 209 204 208 212 192 186 179 156 147 159 166 117 101 75 32 14 15 32 345 334 300 266 190 179 208 233 234 258 248 241 253 254 241 244 244
228 234 241 213 205 192 212 260 238 192 194 224 226 225 209 199 199 196 186 204 185 151 141 167 165 121 117 103 53 23 27 8 336 310 288 261 234 198 211 232 240 266 271 251 246 249 252 253 258
210 234 244 228 199 210 220 258 247 180 208 230 231 219 205 196 191 193 186 191 178 163 158 143 138 136 128 143 131 47 26 279 304 293 289 282 266 237 230 238 245 253 247 248 254 254 248 248 256
237 249 258 242 200 235 246 258 255 222 224 237 236 220 201 199 198 192 179 171 158 151 134 125 109 126 129 116 138 104 0 297 334 321 301 282 267 254 244 256 265 281 236 244 247 250 250 244 248
300 293 282 283 197 253 257 267 264 243 228 235 233 216 204 203 185 173 139 127 129 119 111 109 91 89 106 120 194 206 249 288 295 295 311 301 285 274 256 249 261 273 257 248 256 259 250 253 255
279 285 286 300 30 278 275 273 262 237 225 228 224 210 207 203 185 167 138 121 112 117 112 120 94 67 89 181 223 219 237 266 254 290 304 295 290 286 272 247 248 259 263 265 260 258 255 260 235
262 264 281 298 309 261 273 282 243 218 215 218 216 202 201 195 182 163 145 120 100 97 101 127 115 291 338 278 11 29 341 321 319 304 292 311 313 303 280 256 250 251 250 254 259 249 244 245 243
250 279 297 302 304 282 245 288 261 210 208 208 202 198 196 174 151 135 112 91 73 68 64 45 54 356 358 201 202 215 244 259 263 250 259 282 290 291 281 251 240 237 241 252 257 259 254 239 240
268 332 285 270 261 283 246 248 273 203 206 196 176 173 167 143 130 117 108 98 72 60 67 45 20 348 329 285 240 248 270 266 271 264 262 273 278 284 287 264 230 239 244 246 253 259 255 247 242
240 299 261 257 247 262 226 217 269 213 192 162 153 148 136 116 106 99 96 92 80 64 61 50 20 342 319 295 272 259 266 276 280 277 270 271 269 275 274 264 244 243 248 247 245 246 249 250 250
211 139 48 280 238 245 197 218 249 186 124 124 130 122 111 105 101 92 88 84 75 59 53 49 27 354 333 305 276 268 264 263 260 266 264 271 273 280 269 278 261 251 246 246 242 242 247 243 244
219 208 181 225 252 271 231 233 243 133 103 98 101 109 118 121 114 105 90 80 70 50 46 47 26 358 354 350 318 288 274 265 265 271 273 270 266 268 278 278 275 266 261 259 248 243 244 245 243
208 220 254 284 295 282 244 230 208 130 130 133 130 138 147 137 122 107 75 56 52 40 40 35 14 342 340 339 335 310 300 295 292 291 286 280 281 279 284 282 279 273 269 262 254 249 247 246 244
260 243 162 191 233 262 259 236 216 170 175 162 155 155 141 124 115 110 86 57 40 29 28 21 357 327 327 338 333 326 318 310 305 301 298 297 290 285 282 279 282 282 278 270 257 255 254 248 249
192 202 200 218 241 237 275 268 62 159 164 162 167 161 143 131 132 114 83 57 30 21 10 352 343 339 338 338 329 323 323 327 322 309 304 304 299 292 286 286 284 280 279 274 266 260 258 255 258
227 221 192 196 232 224 256 271 54 118 143 150 161 149 139 144 143 121 93 57 26 358 342 334 335 335 330 333 327 320 321 322 319 312 309 308 304 302 293 287 288 284 281 276 269 267 264 259 261
Height
1496 1497 1499 1502 1503 1503 1499 1489 1482 1483 1485 1488 1489 1490 1492 1497 1501 1511 1510 1509 1509 1509 1509 1511 1512 1513 1515 1516 1517 1518 1519 1520 1521 1522 1523 1523 1523 1524 1524 1525 1525 1525 1525 1526 1526 1526 1526 1526 1527
1496 1497 1501 1501 1503 1504 1496 1485 1485 1485 1488 1490 1491 1493 1494 1499 1502 1505 1506 1508 1508 1508 1509 1510 1512 1513 1515 1516 1517 1518 1519 1520 1521 1522 1523 1523 1524 1524 1525 1525 1525 1526 1526 1526 1526 1526 1526 1527 1527
1496 1498 1500 1498 1498 1498 1492 1484 1485 1487 1489 1491 1493 1495 1498 1502 1504 1505 1506 1507 1508 1509 1509 1510 1512 1513 1514 1516 1517 1518 1519 1520 1521 1522 1523 1523 1524 1524 1525 1525 1525 1526 1526 1526 1526 1526 1527 1527 1527
1497 1499 1499 1498 1496 1489 1486 1485 1486 1488 1490 1492 1494 1498 1501 1504 1504 1505 1506 1507 1508 1508 1509 1510 1511 1513 1514 1515 1517 1518 1519 1520 1521 1522 1522 1523 1524 1524 1525 1525 1525 1526 1526 1526 1526 1527 1527 1527 1527
1498 1498 1497 1497 1493 1487 1484 1485 1487 1489 1491 1492 1494 1498 1502 1504 1504 1505 1506 1507 1508 1508 1509 1510 1511 1512 1513 1515 1516 1517 1518 1519 1520 1521 1522 1523 1523 1524 1524 1525 1525 1526 1526 1526 1526 1527 1527 1527 1527
1498 1495 1497 1496 1490 1484 1484 1486 1488 1490 1492 1493 1495 1498 1502 1503 1503 1504 1505 1506 1507 1508 1508 1509 1511 1512 1513 1514 1515 1517 1518 1518 1519 1520 1521 1522 1522 1523 1524 1524 1525 1525 1525 1526 1526 1526 1527 1527 1527
1497 1494 1493 1490 1488 1485 1485 1487 1489 1491 1492 1494 1495 1498 1501 1503 1503 1504 1505 1506 1507 1507 1508 1509 1510 1511 1512 1513 1514 1515 1516 1517 1518 1519 1520 1521 1521 1522 1523 1523 1524 1524 1525 1525 1525 1526 1526 1526 1527
1495 1494 1490 1488 1487 1486 1487 1488 1490 1492 1493 1495 1496 1498 1500 1502 1502 1503 1504 1506 1506 1507 1507 1508 1509 1510 1511 1512 1513 1514 1515 1516 1517 1518 1519 1519 1520 1521 1521 1522 1523 1523 1523 1524 1524 1525 1525 1526 1526
1494 1497 1493 1489 1487 1487 1487 1489 1491 1493 1494 1495 1496 1498 1499 1500 1501 1503 1503 1504 1505 1506 1506 1507 1508 1508 1509 1510 1511 1512 1513 1514 1515 1516 1517 1518 1519 1519 1520 1521 1521 1522 1522 1523 1523 1523 1524 1524 1525
1494 1496 1492 1489 1488 1488 1489 1491 1492 1494 1494 1495 1497 1498 1498 1499 1501 1501 1502 1503 1503 1504 1505 1505 1506 1507 1508 1509 1510 1511 1512 1513 1514 1514 1515 1516 1517 1518 1518 1519 1520 1520 1521 1521 1522 1522 1522 1523 1523
1491 1492 1491 1490 1490 1491 1491 1492 1493 1494 1494 1495 1496 1497 1497 1498 1500 1501 1501 1501 1502 1502 1503 1504 1505 1505 1506 1507 1508 1509 1510 1511 1512 1513 1514 1515 1515 1516 1517 1517 1518 1518 1519 1519 1519 1520 1521 1521 1522
1491 1491 1491 1492 1492 1492 1493 1493 1494 1494 1494 1494 1494 1495 1496 1497 1498 1499 1500 1500 1501 1501 1501 1502 1503 1503 1504 1505 1506 1507 1508 1508 1510 1511 1512 1513 1514 1514 1515 1515 1516 1516 1517 1517 1517 1518 1518 1519 1520
1491 1491 1492 1492 1493 1493 1493 1493 1493 1492 1492 1493 1493 1494 1495 1496 1497 1498 1498 1499 1499 1499 1499 1500 1501 1501 1502 1503 1504 1504 1505 1506 1507 1509 1510 1511 1511 1512 1512 1513 1513 1514 1514 1515 1515 1515 1516 1516 1517
1490 1491 1491 1492 1492 1493 1492 1492 1492 1489 1490 1491 1492 1492 1493 1494 1494 1496 1497 1497 1497 1497 1497 1498 1498 1499 1500 1500 1501 1502 1503 1504 1505 1506 1507 1508 1509 1509 1510 1510 1511 1511 1512 1512 1513 1513 1513 1514 1514
1491 1492 1491 1490 1490 1491 1492 1491 1488 1486 1488 1489 1490 1490 1491 1492 1493 1493 1494 1495 1495 1495 1495 1495 1496 1497 1497 1498 1498 1499 1500 1501 1502 1503 1504 1505 1505 1506 1507 1507 1508 1508 1509 1509 1510 1510 1511 1511 1511
1491 1492 1492 1487 1487 1488 1494 1491 1483 1483 1485 1486 1488 1488 1489 1490 1491 1491 1492 1493 1493 1493 1493 1493 1494 1494 1495 1495 1496 1496 1497 1498 1498 1499 1500 1501 1502 1503 1503 1504 1504 1505 1506 1506 1507 1507 1507 1507 1507
1490 1490 1488 1487 1486 1486 1489 1488 1482 1481 1483 1484 1485 1485 1486 1487 1488 1489 1490 1490 1491 1491 1491 1491 1491 1492 1492 1492 1493 1493 1494 1495 1495 1496 1497 1497 1498 1499 1499 1500 1501 1501 1502 1502 1503 1504 1504 1504 1504
1489 1487 1485 1486 1485 1486 1487 1485 1481 1480 1481 1481 1482 1483 1483 1484 1485 1487 1487 1488 1488 1488 1489 1489 1489 1489 1489 1489 1490 1490 1491 1491 1492 1492 1493 1494 1495 1495 1496 1496 1497 1497 1498 1498 1499 1500 1500 1501 1501
1486 1486 1487 1484 1485 1486 1486 1483 1478 1477 1478 1478 1479 1479 1480 1482 1483 1484 1485 1485 1486 1486 1486 1486 1487 1486 1486 1487 1487 1487 1487 1488 1488 1489 1489 1490 1491 1491 1491 1492 1493 1493 1494 1494 1495 1496 1496 1497 1497
1487 1488 1487 1485 1484 1485 1484 1481 1475 1473 1474 1475 1476 1477 1478 1479 1481 1482 1483 1483 1483 1483 1484 1484 1484 1484 1484 1484 1484 1484 1484 1484 1485 1486 1486 1487 1487 1487 1487 1488 1488 1489 1490 1490 1491 1491 1492 1492 1493
1488 1489 1488 1488 1486 1484 1485 1480 1471 1469 1471 1472 1473 1474 1476 1477 1478 1480 1481 1481 1481 1481 1481 1481 1481 1481 1482 1482 1482 1481 1481 1481 1482 1482 1483 1483 1483 1483 1483 1484 1484 1485 1485 1486 1486 1487 1487 1488 1489
1489 1488 1488 1489 1492 1491 1486 1490 1471 1467 1468 1468 1470 1472 1473 1475 1477 1478 1478 1479 1479 1479 1479 1479 1479 1479 1479 1480 1479 1479 1478 1478 1478 1479 1479 1479 1480 1479 1479 1480 1480 1480 1481 1481 1482 1483 1483 1484 1483
1489 1488 1489 1489 1491 1494 1486 1491 1476 1465 1466 1466 1468 1470 1472 1474 1475 1476 1477 1477 1477 1477 1477 1477 1477 1477 1477 1477 1476 1476 1475 1475 1476 1476 1475 1475 1475 1475 1475 1475 1475 1475 1476 1476 1477 1478 1478 1479 1479
1489 1490 1490 1490 1493 1498 1484 1486 1476 1466 1462 1464 1465 1468 1470 1472 1474 1475 1475 1476 1476 1476 1476 1475 1475 1475 1474 1474 1474 1473 1473 1472 1472 1472 1471 1471 1471 1471 1471 1471 1471 1471 1471 1472 1472 1473 1474 1474 1474
1490 1494 1498 1498 1497 1490 1476 1479 1472 1461 1459 1461 1464 1467 1469 1471 1473 1474 1474 1474 1474 1474 1474 1473 1473 1472 1472 1471 1471 1470 1470 1469 1469 1468 1468 1467 1467 1466 1467 1467 1467 1467 1467 1467 1467 1468 1468 1469 1469
1489 1490 1497 1499 1492 1483 1479 1478 1466 1459 1459 1461 1464 1466 1469 1471 1472 1473 1473 1473 1473 1473 1472 1472 1471 1470 1469 1468 1468 1467 1467 1466 1466 1465 1465 1464 1463 1463 1463 1463 1463 1462 1462 1462 1462 1462 1463 1463 1463
1488 1489 1487 1493 1492 1492 1478 1466 1462 1460 1461 1462 1465 1466 1468 1470 1471 1472 1472 1472 1472 1471 1471 1470 1469 1468 1467 1466 1465 1464 1464 1463 1462 1462 1461 1461 1460 1459 1459 1458 1458 1457 1457 1457 1457 1457 1457 1457 1458
1487 1487 1492 1495 1496 1489 1471 1465 1465 1463 1461 1462 1464 1465 1467 1468 1470 1470 1471 1471 1470 1470 1469 1468 1467 1466 1464 1463 1462 1461 1461 1460 1459 1458 1457 1456 1456 1455 1455 1454 1453 1453 1452 1452 1451 1451 1451 1452 1452
1488 1489 1489 1491 1490 1490 1482 1470 1456 1457 1459 1461 1463 1464 1465 1467 1468 1469 1469 1469 1468 1467 1466 1465 1464 1463 1462 1461 1459 1458 1457 1456 1456 1455 1454 1453 1452 1451 1450 1450 1449 1448 1447 1447 1446 1446 1446 1446 1446
1484 1483 1486 1492 1490 1486 1486 1475 1457 1457 1458 1460 1462 1463 1464 1466 1466 1467 1467 1466 1466 1465 1464 1463 1462 1460 1459 1458 1456 1455 1454 1453 1452 1451 1450 1449 1448 1447 1446 1445 1444 1443 1442 1442 1441 1440 1440 1440 1439